Orbital Elements at Epoch 2459200.5 (2020-Dec-17.0) TDB
Reference: JPL 15 (heliocentric ecliptic J2000)
Element | Value | Uncertainty (1-sigma) | Units |
e | .1820726522390733 | 4.3888e-08 | |
a | 2.449128774571911 | 1.0401e-08 | au |
q | 2.003209402910571 | 1.1018e-07 | au |
i | 1.958581476034396 | 3.758e-06 | deg |
node | 266.4328041761327 | 0.0001358 | deg |
peri | 44.42093519762789 | 0.00013617 | deg |
M | 325.0762928090801 | 1.0808e-05 | deg |
tp | 2459336.310608682497 (2021-May-01.81060868) | 4.2297e-05 | TDB |
period | 1399.960744671767 3.83 | 8.9177e-06 2.442e-08 | d yr |
n | .2571500675073608 | 1.638e-09 | deg/d |
Q | 2.89504814623325 | 1.2294e-08 | au |
|
| | Orbit Determination Parameters
Additional Information
|